owner,sensor,date,latitude,longitude,vertical_datum,wind_speed,wind_to_direction,wind_speed_of_gust,qcFlag 
WAVCIS,ioos:station:WAVCIS:CSI03:3,2012-12-01T00:00:00Z,29.4412,-92.0613,10.0,3.351,147.0,,'11111222,11111222,99999999' 
WAVCIS,ioos:station:WAVCIS:CSI03:3,2012-12-01T01:00:00Z,29.4412,-92.0613,10.0,1.947,168.0,,'11111222,11111222,99999999' 
WAVCIS,ioos:station:WAVCIS:CSI03:3,2012-12-01T02:00:00Z,29.4412,-92.0613,10.0,4.214,148.0,,'11111222,11111222,99999999' 
WAVCIS,ioos:station:WAVCIS:CSI03:3,2012-12-01T03:00:00Z,29.4412,-92.0613,10.0,5.866,142.0,,'11111222,11111222,99999999' 
WAVCIS,ioos:station:WAVCIS:CSI03:3,2012-12-01T04:00:00Z,29.4412,-92.0613,10.0,4.698,145.0,,'11111222,11111222,99999999' 
WAVCIS,ioos:station:WAVCIS:CSI03:3,2012-12-01T05:00:00Z,29.4412,-92.0613,10.0,4.979,130.0,,'11111222,11111222,99999999' 
WAVCIS,ioos:station:WAVCIS:CSI03:3,2012-12-01T06:00:00Z,29.4412,-92.0613,10.0,4.944,122.0,,'11111222,11111222,99999999' 
WAVCIS,ioos:station:WAVCIS:CSI03:3,2012-12-01T07:00:00Z,29.4412,-92.0613,10.0,3.934,117.0,,'11111222,11111222,99999999' 
WAVCIS,ioos:station:WAVCIS:CSI03:3,2012-12-01T08:00:00Z,29.4412,-92.0613,10.0,3.307,99.0,,'11111222,11111222,99999999' 
WAVCIS,ioos:station:WAVCIS:CSI03:3,2012-12-01T09:00:00Z,29.4412,-92.0613,10.0,3.297,98.0,,'11111222,11111222,99999999' 
WAVCIS,ioos:station:WAVCIS:CSI03:3,2012-12-01T10:00:00Z,29.4412,-92.0613,10.0,7.17,131.0,,'11111222,11111222,99999999' 
WAVCIS,ioos:station:WAVCIS:CSI03:3,2012-12-01T11:00:00Z,29.4412,-92.0613,10.0,5.004,139.0,,'11111222,11111222,99999999' 
WAVCIS,ioos:station:WAVCIS:CSI03:3,2012-12-01T12:00:00Z,29.4412,-92.0613,10.0,3.899,108.0,,'11111222,11111222,99999999' 
WAVCIS,ioos:station:WAVCIS:CSI03:3,2012-12-01T13:00:00Z,29.4412,-92.0613,10.0,3.452,88.0,,'11111222,11111222,99999999' 
WAVCIS,ioos:station:WAVCIS:CSI03:3,2012-12-01T14:00:00Z,29.4412,-92.0613,10.0,3.833,90.0,,'11111222,11111222,99999999' 
WAVCIS,ioos:station:WAVCIS:CSI03:3,2012-12-01T15:00:00Z,29.4412,-92.0613,10.0,5.467,105.0,,'11111222,11111222,99999999' 
WAVCIS,ioos:station:WAVCIS:CSI03:3,2012-12-01T16:00:00Z,29.4412,-92.0613,10.0,5.499,112.0,,'11111222,11111222,99999999' 
WAVCIS,ioos:station:WAVCIS:CSI03:3,2012-12-01T17:00:00Z,29.4412,-92.0613,10.0,5.774,116.0,,'11111222,11111222,99999999' 
WAVCIS,ioos:station:WAVCIS:CSI03:3,2012-12-01T18:00:00Z,29.4412,-92.0613,10.0,5.756,118.0,,'11111222,11111222,99999999' 
WAVCIS,ioos:station:WAVCIS:CSI03:3,2012-12-01T19:00:00Z,29.4412,-92.0613,10.0,5.171,122.0,,'11111222,11111222,99999999' 
WAVCIS,ioos:station:WAVCIS:CSI03:3,2012-12-01T20:00:00Z,29.4412,-92.0613,10.0,5.355,126.0,,'11111222,11111222,99999999' 
WAVCIS,ioos:station:WAVCIS:CSI03:3,2012-12-01T21:00:00Z,29.4412,-92.0613,10.0,5.149,132.0,,'11111222,11111222,99999999' 
WAVCIS,ioos:station:WAVCIS:CSI03:3,2012-12-01T22:00:00Z,29.4412,-92.0613,10.0,5.361,144.0,,'11111222,11111222,99999999' 
WAVCIS,ioos:station:WAVCIS:CSI03:3,2012-12-01T23:00:00Z,29.4412,-92.0613,10.0,5.021,147.0,,'11111222,11111222,99999999' 
WAVCIS,ioos:station:WAVCIS:CSI03:3,2012-12-02T00:00:00Z,29.4412,-92.0613,10.0,5.367,146.0,,'11111222,11111222,99999999' 
WAVCIS,ioos:station:WAVCIS:CSI03:3,2012-12-02T01:00:00Z,29.4412,-92.0613,10.0,6.22,149.0,,'11111222,11111222,99999999' 
WAVCIS,ioos:station:WAVCIS:CSI03:3,2012-12-02T02:00:00Z,29.4412,-92.0613,10.0,6.211,151.0,,'11111222,11111222,99999999' 
WAVCIS,ioos:station:WAVCIS:CSI03:3,2012-12-02T03:00:00Z,29.4412,-92.0613,10.0,5.418,153.0,,'11111222,11111222,99999999' 
WAVCIS,ioos:station:WAVCIS:CSI03:3,2012-12-02T04:00:00Z,29.4412,-92.0613,10.0,5.638,149.0,,'11111222,11111222,99999999' 
WAVCIS,ioos:station:WAVCIS:CSI03:3,2012-12-02T05:00:00Z,29.4412,-92.0613,10.0,4.939,138.0,,'11111222,11111222,99999999' 
WAVCIS,ioos:station:WAVCIS:CSI03:3,2012-12-02T06:00:00Z,29.4412,-92.0613,10.0,4.614,138.0,,'11111222,11111222,99999999' 
WAVCIS,ioos:station:WAVCIS:CSI03:3,2012-12-02T07:00:00Z,29.4412,-92.0613,10.0,4.933,138.0,,'11111222,11111222,99999999' 
WAVCIS,ioos:station:WAVCIS:CSI03:3,2012-12-02T08:00:00Z,29.4412,-92.0613,10.0,4.828,138.0,,'11111222,11111222,99999999' 
WAVCIS,ioos:station:WAVCIS:CSI03:3,2012-12-02T09:00:00Z,29.4412,-92.0613,10.0,4.935,137.0,,'11111222,11111222,99999999' 
WAVCIS,ioos:station:WAVCIS:CSI03:3,2012-12-02T10:00:00Z,29.4412,-92.0613,10.0,4.742,133.0,,'11111222,11111222,99999999' 
WAVCIS,ioos:station:WAVCIS:CSI03:3,2012-12-02T11:00:00Z,29.4412,-92.0613,10.0,4.695,125.0,,'11111222,11111222,99999999' 
WAVCIS,ioos:station:WAVCIS:CSI03:3,2012-12-02T12:00:00Z,29.4412,-92.0613,10.0,5.201,117.0,,'11111222,11111222,99999999' 
WAVCIS,ioos:station:WAVCIS:CSI03:3,2012-12-02T13:00:00Z,29.4412,-92.0613,10.0,5.45,113.0,,'11111222,11111222,99999999' 
WAVCIS,ioos:station:WAVCIS:CSI03:3,2012-12-02T14:00:00Z,29.4412,-92.0613,10.0,5.777,114.0,,'11111222,11111222,99999999' 
WAVCIS,ioos:station:WAVCIS:CSI03:3,2012-12-02T15:00:00Z,29.4412,-92.0613,10.0,6.413,124.0,,'11111222,11111222,99999999' 
WAVCIS,ioos:station:WAVCIS:CSI03:3,2012-12-02T16:00:00Z,29.4412,-92.0613,10.0,6.047,129.0,,'11111222,11111222,99999999' 
WAVCIS,ioos:station:WAVCIS:CSI03:3,2012-12-02T17:00:00Z,29.4412,-92.0613,10.0,5.622,129.0,,'11111222,11111222,99999999' 
WAVCIS,ioos:station:WAVCIS:CSI03:3,2012-12-02T18:00:00Z,29.4412,-92.0613,10.0,5.342,122.0,,'11111222,11111222,99999999' 
WAVCIS,ioos:station:WAVCIS:CSI03:3,2012-12-02T19:00:00Z,29.4412,-92.0613,10.0,5.571,125.0,,'11111222,11111222,99999999' 
WAVCIS,ioos:station:WAVCIS:CSI03:3,2012-12-02T20:00:00Z,29.4412,-92.0613,10.0,5.636,128.0,,'11111222,11111222,99999999' 
WAVCIS,ioos:station:WAVCIS:CSI03:3,2012-12-02T21:00:00Z,29.4412,-92.0613,10.0,5.246,128.0,,'11111222,11111222,99999999' 
WAVCIS,ioos:station:WAVCIS:CSI03:3,2012-12-02T22:00:00Z,29.4412,-92.0613,10.0,5.189,130.0,,'11111222,11111222,99999999' 
WAVCIS,ioos:station:WAVCIS:CSI03:3,2012-12-02T23:00:00Z,29.4412,-92.0613,10.0,5.353,140.0,,'11111222,11111222,99999999' 
WAVCIS,ioos:station:WAVCIS:CSI03:3,2012-12-03T00:00:00Z,29.4412,-92.0613,10.0,5.736,142.0,,'11111222,11111222,99999999' 
WAVCIS,ioos:station:WAVCIS:CSI03:3,2012-12-03T01:00:00Z,29.4412,-92.0613,10.0,5.572,147.0,,'11111222,11111222,99999999' 
WAVCIS,ioos:station:WAVCIS:CSI03:3,2012-12-03T02:00:00Z,29.4412,-92.0613,10.0,6.116,143.0,,'11111222,11111222,99999999' 
WAVCIS,ioos:station:WAVCIS:CSI03:3,2012-12-03T03:00:00Z,29.4412,-92.0613,10.0,5.666,134.0,,'11111222,11111222,99999999' 
WAVCIS,ioos:station:WAVCIS:CSI03:3,2012-12-03T04:00:00Z,29.4412,-92.0613,10.0,5.361,140.0,,'11111222,11111222,99999999' 
WAVCIS,ioos:station:WAVCIS:CSI03:3,2012-12-03T05:00:00Z,29.4412,-92.0613,10.0,5.52,132.0,,'11111222,11111222,99999999' 
WAVCIS,ioos:station:WAVCIS:CSI03:3,2012-12-03T06:00:00Z,29.4412,-92.0613,10.0,5.284,137.0,,'11111222,11111222,99999999' 
WAVCIS,ioos:station:WAVCIS:CSI03:3,2012-12-03T07:00:00Z,29.4412,-92.0613,10.0,5.407,124.0,,'11111222,11111222,99999999' 
WAVCIS,ioos:station:WAVCIS:CSI03:3,2012-12-03T08:00:00Z,29.4412,-92.0613,10.0,5.798,124.0,,'11111222,11111222,99999999' 
WAVCIS,ioos:station:WAVCIS:CSI03:3,2012-12-03T09:00:00Z,29.4412,-92.0613,10.0,5.729,129.0,,'11111222,11111222,99999999' 
WAVCIS,ioos:station:WAVCIS:CSI03:3,2012-12-03T10:00:00Z,29.4412,-92.0613,10.0,5.503,118.0,,'11111222,11111222,99999999' 
WAVCIS,ioos:station:WAVCIS:CSI03:3,2012-12-03T11:00:00Z,29.4412,-92.0613,10.0,5.794,118.0,,'11111222,11111222,99999999' 
WAVCIS,ioos:station:WAVCIS:CSI03:3,2012-12-03T12:00:00Z,29.4412,-92.0613,10.0,6.657,124.0,,'11111222,11111222,99999999' 
WAVCIS,ioos:station:WAVCIS:CSI03:3,2012-12-03T13:00:00Z,29.4412,-92.0613,10.0,6.434,128.0,,'11111222,11111222,99999999' 
WAVCIS,ioos:station:WAVCIS:CSI03:3,2012-12-03T14:00:00Z,29.4412,-92.0613,10.0,6.612,126.0,,'11111222,11111222,99999999' 
WAVCIS,ioos:station:WAVCIS:CSI03:3,2012-12-03T15:00:00Z,29.4412,-92.0613,10.0,6.298,128.0,,'11111222,11111222,99999999' 
WAVCIS,ioos:station:WAVCIS:CSI03:3,2012-12-03T16:00:00Z,29.4412,-92.0613,10.0,5.853,132.0,,'11111222,11111222,99999999' 
WAVCIS,ioos:station:WAVCIS:CSI03:3,2012-12-03T17:00:00Z,29.4412,-92.0613,10.0,6.453,143.0,,'11111222,11111222,99999999' 
WAVCIS,ioos:station:WAVCIS:CSI03:3,2012-12-03T18:00:00Z,29.4412,-92.0613,10.0,6.101,140.0,,'11111222,11111222,99999999' 
WAVCIS,ioos:station:WAVCIS:CSI03:3,2012-12-03T19:00:00Z,29.4412,-92.0613,10.0,6.669,134.0,,'11111222,11111222,99999999' 
WAVCIS,ioos:station:WAVCIS:CSI03:3,2012-12-03T20:00:00Z,29.4412,-92.0613,10.0,6.224,134.0,,'11111222,11111222,99999999' 
WAVCIS,ioos:station:WAVCIS:CSI03:3,2012-12-03T21:00:00Z,29.4412,-92.0613,10.0,6.201,139.0,,'11111222,11111222,99999999' 
WAVCIS,ioos:station:WAVCIS:CSI03:3,2012-12-03T22:00:00Z,29.4412,-92.0613,10.0,6.146,139.0,,'11111222,11111222,99999999' 
WAVCIS,ioos:station:WAVCIS:CSI03:3,2012-12-03T23:00:00Z,29.4412,-92.0613,10.0,6.062,136.0,,'11111222,11111222,99999999' 
WAVCIS,ioos:station:WAVCIS:CSI03:3,2012-12-04T00:00:00Z,29.4412,-92.0613,10.0,5.758,120.0,,'11111222,11111222,99999999' 
WAVCIS,ioos:station:WAVCIS:CSI03:3,2012-12-04T01:00:00Z,29.4412,-92.0613,10.0,5.865,131.0,,'11111222,11111222,99999999' 
WAVCIS,ioos:station:WAVCIS:CSI03:3,2012-12-04T02:00:00Z,29.4412,-92.0613,10.0,6.023,138.0,,'11111222,11111222,99999999' 
WAVCIS,ioos:station:WAVCIS:CSI03:3,2012-12-04T03:00:00Z,29.4412,-92.0613,10.0,6.183,132.0,,'11111222,11111222,99999999' 
WAVCIS,ioos:station:WAVCIS:CSI03:3,2012-12-04T04:00:00Z,29.4412,-92.0613,10.0,6.715,147.0,,'11111222,11111222,99999999' 
WAVCIS,ioos:station:WAVCIS:CSI03:3,2012-12-04T05:00:00Z,29.4412,-92.0613,10.0,6.442,144.0,,'11111222,11111222,99999999' 
WAVCIS,ioos:station:WAVCIS:CSI03:3,2012-12-04T06:00:00Z,29.4412,-92.0613,10.0,5.902,136.0,,'11111222,11111222,99999999' 
WAVCIS,ioos:station:WAVCIS:CSI03:3,2012-12-04T07:00:00Z,29.4412,-92.0613,10.0,5.661,139.0,,'11111222,11111222,99999999' 
WAVCIS,ioos:station:WAVCIS:CSI03:3,2012-12-04T08:00:00Z,29.4412,-92.0613,10.0,5.656,147.0,,'11111222,11111222,99999999' 
WAVCIS,ioos:station:WAVCIS:CSI03:3,2012-12-04T09:00:00Z,29.4412,-92.0613,10.0,5.85,144.0,,'11111222,11111222,99999999' 
WAVCIS,ioos:station:WAVCIS:CSI03:3,2012-12-04T10:00:00Z,29.4412,-92.0613,10.0,5.825,148.0,,'11111222,11111222,99999999' 
WAVCIS,ioos:station:WAVCIS:CSI03:3,2012-12-04T11:00:00Z,29.4412,-92.0613,10.0,5.473,148.0,,'11111222,11111222,99999999' 
WAVCIS,ioos:station:WAVCIS:CSI03:3,2012-12-04T12:00:00Z,29.4412,-92.0613,10.0,4.821,144.0,,'11111222,11111222,99999999' 
WAVCIS,ioos:station:WAVCIS:CSI03:3,2012-12-04T13:00:00Z,29.4412,-92.0613,10.0,5.211,140.0,,'11111222,11111222,99999999' 
WAVCIS,ioos:station:WAVCIS:CSI03:3,2012-12-04T14:00:00Z,29.4412,-92.0613,10.0,5.56,142.0,,'11111222,11111222,99999999' 
WAVCIS,ioos:station:WAVCIS:CSI03:3,2012-12-04T15:00:00Z,29.4412,-92.0613,10.0,4.659,148.0,,'11111222,11111222,99999999' 
WAVCIS,ioos:station:WAVCIS:CSI03:3,2012-12-04T16:00:00Z,29.4412,-92.0613,10.0,4.537,151.0,,'11111222,11111222,99999999' 
WAVCIS,ioos:station:WAVCIS:CSI03:3,2012-12-04T17:00:00Z,29.4412,-92.0613,10.0,3.833,147.0,,'11111222,11111222,99999999' 
WAVCIS,ioos:station:WAVCIS:CSI03:3,2012-12-04T18:00:00Z,29.4412,-92.0613,10.0,4.264,134.0,,'11111222,11111222,99999999' 
WAVCIS,ioos:station:WAVCIS:CSI03:3,2012-12-04T19:00:00Z,29.4412,-92.0613,10.0,4.906,129.0,,'11111222,11111222,99999999' 
WAVCIS,ioos:station:WAVCIS:CSI03:3,2012-12-04T20:00:00Z,29.4412,-92.0613,10.0,5.072,141.0,,'11111222,11111222,99999999' 
WAVCIS,ioos:station:WAVCIS:CSI03:3,2012-12-04T21:00:00Z,29.4412,-92.0613,10.0,4.977,128.0,,'11111222,11111222,99999999' 
WAVCIS,ioos:station:WAVCIS:CSI03:3,2012-12-04T22:00:00Z,29.4412,-92.0613,10.0,5.353,144.0,,'11111222,11111222,99999999' 
WAVCIS,ioos:station:WAVCIS:CSI03:3,2012-12-04T23:00:00Z,29.4412,-92.0613,10.0,4.222,125.0,,'11111222,11111222,99999999' 
WAVCIS,ioos:station:WAVCIS:CSI03:3,2012-12-05T00:00:00Z,29.4412,-92.0613,10.0,5.145,140.0,,'11111222,11111222,99999999' 
WAVCIS,ioos:station:WAVCIS:CSI03:3,2012-12-05T01:00:00Z,29.4412,-92.0613,10.0,8.69,319.0,,'11111222,11111222,99999999' 
WAVCIS,ioos:station:WAVCIS:CSI03:3,2012-12-05T02:00:00Z,29.4412,-92.0613,10.0,11.18,11.0,,'11111222,11111222,99999999' 
WAVCIS,ioos:station:WAVCIS:CSI03:3,2012-12-05T03:00:00Z,29.4412,-92.0613,10.0,8.26,56.0,,'11111222,11111222,99999999' 
WAVCIS,ioos:station:WAVCIS:CSI03:3,2012-12-05T04:00:00Z,29.4412,-92.0613,10.0,9.57,64.0,,'11111222,11111222,99999999' 
WAVCIS,ioos:station:WAVCIS:CSI03:3,2012-12-05T05:00:00Z,29.4412,-92.0613,10.0,5.543,70.0,,'11111222,11111222,99999999' 
WAVCIS,ioos:station:WAVCIS:CSI03:3,2012-12-05T06:00:00Z,29.4412,-92.0613,10.0,5.418,68.0,,'11111222,11111222,99999999' 
WAVCIS,ioos:station:WAVCIS:CSI03:3,2012-12-05T07:00:00Z,29.4412,-92.0613,10.0,2.438,38.0,,'11111222,11111222,99999999' 
WAVCIS,ioos:station:WAVCIS:CSI03:3,2012-12-05T08:00:00Z,29.4412,-92.0613,10.0,5.917,341.0,,'11111222,11111222,99999999' 
WAVCIS,ioos:station:WAVCIS:CSI03:3,2012-12-05T09:00:00Z,29.4412,-92.0613,10.0,5.583,351.0,,'11111222,11111222,99999999' 
WAVCIS,ioos:station:WAVCIS:CSI03:3,2012-12-05T10:00:00Z,29.4412,-92.0613,10.0,4.629,12.0,,'11111222,11111222,99999999' 
WAVCIS,ioos:station:WAVCIS:CSI03:3,2012-12-05T11:00:00Z,29.4412,-92.0613,10.0,2.505,36.0,,'11111222,11111222,99999999' 
WAVCIS,ioos:station:WAVCIS:CSI03:3,2012-12-05T12:00:00Z,29.4412,-92.0613,10.0,4.27,43.0,,'11111222,11111222,99999999' 
WAVCIS,ioos:station:WAVCIS:CSI03:3,2012-12-05T13:00:00Z,29.4412,-92.0613,10.0,4.329,3.0,,'11111222,11111222,99999999' 
WAVCIS,ioos:station:WAVCIS:CSI03:3,2012-12-05T14:00:00Z,29.4412,-92.0613,10.0,5.692,6.0,,'11111222,11111222,99999999' 
WAVCIS,ioos:station:WAVCIS:CSI03:3,2012-12-05T15:00:00Z,29.4412,-92.0613,10.0,7.17,15.0,,'11111222,11111222,99999999' 
WAVCIS,ioos:station:WAVCIS:CSI03:3,2012-12-05T16:00:00Z,29.4412,-92.0613,10.0,5.127,27.0,,'11111222,11111222,99999999' 
WAVCIS,ioos:station:WAVCIS:CSI03:3,2012-12-05T17:00:00Z,29.4412,-92.0613,10.0,5.31,14.0,,'11111222,11111222,99999999' 
WAVCIS,ioos:station:WAVCIS:CSI03:3,2012-12-05T18:00:00Z,29.4412,-92.0613,10.0,5.627,352.0,,'11111222,11111222,99999999' 
WAVCIS,ioos:station:WAVCIS:CSI03:3,2012-12-05T19:00:00Z,29.4412,-92.0613,10.0,4.648,9.0,,'11111222,11111222,99999999' 
WAVCIS,ioos:station:WAVCIS:CSI03:3,2012-12-05T20:00:00Z,29.4412,-92.0613,10.0,4.001,11.0,,'11111222,11111222,99999999' 
WAVCIS,ioos:station:WAVCIS:CSI03:3,2012-12-05T21:00:00Z,29.4412,-92.0613,10.0,4.691,18.0,,'11111222,11111222,99999999' 
WAVCIS,ioos:station:WAVCIS:CSI03:3,2012-12-05T22:00:00Z,29.4412,-92.0613,10.0,5.054,24.0,,'11111222,11111222,99999999' 
WAVCIS,ioos:station:WAVCIS:CSI03:3,2012-12-05T23:00:00Z,29.4412,-92.0613,10.0,7.37,8.0,,'11111222,11111222,99999999' 
WAVCIS,ioos:station:WAVCIS:CSI03:3,2012-12-06T00:00:00Z,29.4412,-92.0613,10.0,6.092,9.0,,'11111222,11111222,99999999' 
WAVCIS,ioos:station:WAVCIS:CSI03:3,2012-12-06T01:00:00Z,29.4412,-92.0613,10.0,6.292,17.0,,'11111222,11111222,99999999' 
WAVCIS,ioos:station:WAVCIS:CSI03:3,2012-12-06T02:00:00Z,29.4412,-92.0613,10.0,5.632,24.0,,'11111222,11111222,99999999' 
WAVCIS,ioos:station:WAVCIS:CSI03:3,2012-12-06T03:00:00Z,29.4412,-92.0613,10.0,5.451,13.0,,'11111222,11111222,99999999' 
WAVCIS,ioos:station:WAVCIS:CSI03:3,2012-12-06T04:00:00Z,29.4412,-92.0613,10.0,5.274,41.0,,'11111222,11111222,99999999' 
WAVCIS,ioos:station:WAVCIS:CSI03:3,2012-12-06T05:00:00Z,29.4412,-92.0613,10.0,4.282,33.0,,'11111222,11111222,99999999' 
WAVCIS,ioos:station:WAVCIS:CSI03:3,2012-12-06T06:00:00Z,29.4412,-92.0613,10.0,3.978,26.0,,'11111222,11111222,99999999' 
WAVCIS,ioos:station:WAVCIS:CSI03:3,2012-12-06T07:00:00Z,29.4412,-92.0613,10.0,2.614,34.0,,'11111222,11111222,99999999' 
WAVCIS,ioos:station:WAVCIS:CSI03:3,2012-12-06T08:00:00Z,29.4412,-92.0613,10.0,2.115,35.0,,'11111222,11111222,99999999' 
WAVCIS,ioos:station:WAVCIS:CSI03:3,2012-12-06T09:00:00Z,29.4412,-92.0613,10.0,3.231,79.0,,'11111222,11111222,99999999' 
WAVCIS,ioos:station:WAVCIS:CSI03:3,2012-12-06T10:00:00Z,29.4412,-92.0613,10.0,1.647,31.0,,'11111222,11111222,99999999' 
WAVCIS,ioos:station:WAVCIS:CSI03:3,2012-12-06T11:00:00Z,29.4412,-92.0613,10.0,2.751,342.0,,'11111222,11111222,99999999' 
WAVCIS,ioos:station:WAVCIS:CSI03:3,2012-12-06T12:00:00Z,29.4412,-92.0613,10.0,2.972,6.0,,'11111222,11111222,99999999' 
WAVCIS,ioos:station:WAVCIS:CSI03:3,2012-12-06T13:00:00Z,29.4412,-92.0613,10.0,3.277,42.0,,'11111222,11111222,99999999' 
WAVCIS,ioos:station:WAVCIS:CSI03:3,2012-12-06T14:00:00Z,29.4412,-92.0613,10.0,2.848,35.0,,'11111222,11111222,99999999' 
WAVCIS,ioos:station:WAVCIS:CSI03:3,2012-12-06T15:00:00Z,29.4412,-92.0613,10.0,2.628,32.0,,'11111222,11111222,99999999' 
WAVCIS,ioos:station:WAVCIS:CSI03:3,2012-12-06T16:00:00Z,29.4412,-92.0613,10.0,3.235,9.0,,'11111222,11111222,99999999' 
WAVCIS,ioos:station:WAVCIS:CSI03:3,2012-12-06T17:00:00Z,29.4412,-92.0613,10.0,2.106,38.0,,'11111222,11111222,99999999' 
WAVCIS,ioos:station:WAVCIS:CSI03:3,2012-12-06T18:00:00Z,29.4412,-92.0613,10.0,1.446,4.0,,'11111222,11111222,99999999' 
WAVCIS,ioos:station:WAVCIS:CSI03:3,2012-12-06T19:00:00Z,29.4412,-92.0613,10.0,2.057,14.0,,'11111222,11111222,99999999' 
WAVCIS,ioos:station:WAVCIS:CSI03:3,2012-12-06T20:00:00Z,29.4412,-92.0613,10.0,1.331,10.0,,'11111222,11111222,99999999' 
WAVCIS,ioos:station:WAVCIS:CSI03:3,2012-12-06T21:00:00Z,29.4412,-92.0613,10.0,0.168,3.0,,'11111222,11111222,99999999' 
WAVCIS,ioos:station:WAVCIS:CSI03:3,2012-12-06T22:00:00Z,29.4412,-92.0613,10.0,0.969,58.0,,'11111222,11111222,99999999' 
WAVCIS,ioos:station:WAVCIS:CSI03:3,2012-12-06T23:00:00Z,29.4412,-92.0613,10.0,0.513,337.0,,'11111222,11111222,99999999' 
WAVCIS,ioos:station:WAVCIS:CSI03:3,2012-12-07T00:00:00Z,29.4412,-92.0613,10.0,0.846,281.0,,'11111222,11111222,99999999' 
WAVCIS,ioos:station:WAVCIS:CSI03:3,2012-12-07T01:00:00Z,29.4412,-92.0613,10.0,1.783,178.0,,'11111222,11111222,99999999' 
WAVCIS,ioos:station:WAVCIS:CSI03:3,2012-12-07T02:00:00Z,29.4412,-92.0613,10.0,1.381,184.0,,'11111222,11111222,99999999' 
WAVCIS,ioos:station:WAVCIS:CSI03:3,2012-12-07T03:00:00Z,29.4412,-92.0613,10.0,1.799,184.0,,'11111222,11111222,99999999' 
WAVCIS,ioos:station:WAVCIS:CSI03:3,2012-12-07T04:00:00Z,29.4412,-92.0613,10.0,1.305,182.0,,'11111222,11111222,99999999' 
WAVCIS,ioos:station:WAVCIS:CSI03:3,2012-12-07T05:00:00Z,29.4412,-92.0613,10.0,0.374,205.0,,'11111222,11111222,99999999' 
WAVCIS,ioos:station:WAVCIS:CSI03:3,2012-12-07T06:00:00Z,29.4412,-92.0613,10.0,0.88,181.0,,'11111222,11111222,99999999' 
WAVCIS,ioos:station:WAVCIS:CSI03:3,2012-12-07T07:00:00Z,29.4412,-92.0613,10.0,1.072,178.0,,'11111222,11111222,99999999' 
WAVCIS,ioos:station:WAVCIS:CSI03:3,2012-12-07T08:00:00Z,29.4412,-92.0613,10.0,1.431,168.0,,'11111222,11111222,99999999' 
WAVCIS,ioos:station:WAVCIS:CSI03:3,2012-12-07T09:00:00Z,29.4412,-92.0613,10.0,0.784,161.0,,'11111222,11111222,99999999' 
WAVCIS,ioos:station:WAVCIS:CSI03:3,2012-12-07T10:00:00Z,29.4412,-92.0613,10.0,1.777,98.0,,'11111222,11111222,99999999' 
WAVCIS,ioos:station:WAVCIS:CSI03:3,2012-12-07T11:00:00Z,29.4412,-92.0613,10.0,2.007,121.0,,'11111222,11111222,99999999' 
WAVCIS,ioos:station:WAVCIS:CSI03:3,2012-12-07T12:00:00Z,29.4412,-92.0613,10.0,2.199,111.0,,'11111222,11111222,99999999' 
WAVCIS,ioos:station:WAVCIS:CSI03:3,2012-12-07T13:00:00Z,29.4412,-92.0613,10.0,3.075,118.0,,'11111222,11111222,99999999' 
WAVCIS,ioos:station:WAVCIS:CSI03:3,2012-12-07T14:00:00Z,29.4412,-92.0613,10.0,3.048,112.0,,'11111222,11111222,99999999' 
WAVCIS,ioos:station:WAVCIS:CSI03:3,2012-12-07T15:00:00Z,29.4412,-92.0613,10.0,3.28,113.0,,'11111222,11111222,99999999' 
WAVCIS,ioos:station:WAVCIS:CSI03:3,2012-12-07T16:00:00Z,29.4412,-92.0613,10.0,3.629,125.0,,'11111222,11111222,99999999' 
WAVCIS,ioos:station:WAVCIS:CSI03:3,2012-12-07T17:00:00Z,29.4412,-92.0613,10.0,3.221,134.0,,'11111222,11111222,99999999' 
WAVCIS,ioos:station:WAVCIS:CSI03:3,2012-12-07T18:00:00Z,29.4412,-92.0613,10.0,3.772,134.0,,'11111222,11111222,99999999' 
WAVCIS,ioos:station:WAVCIS:CSI03:3,2012-12-07T19:00:00Z,29.4412,-92.0613,10.0,3.908,140.0,,'11111222,11111222,99999999' 
WAVCIS,ioos:station:WAVCIS:CSI03:3,2012-12-07T20:00:00Z,29.4412,-92.0613,10.0,3.6,150.0,4.1,'11111222,11111222,11111222' 
WAVCIS,ioos:station:WAVCIS:CSI03:3,2012-12-07T21:00:00Z,29.4412,-92.0613,10.0,3.503,150.0,,'11111222,11111222,99999999' 
WAVCIS,ioos:station:WAVCIS:CSI03:3,2012-12-07T22:00:00Z,29.4412,-92.0613,10.0,2.366,176.0,,'11111222,11111222,99999999' 
WAVCIS,ioos:station:WAVCIS:CSI03:3,2012-12-07T23:00:00Z,29.4412,-92.0613,10.0,3.192,148.0,,'11111222,11111222,99999999' 
WAVCIS,ioos:station:WAVCIS:CSI03:3,2012-12-08T00:00:00Z,29.4412,-92.0613,10.0,2.488,162.0,,'11111222,11111222,99999999' 
WAVCIS,ioos:station:WAVCIS:CSI03:3,2012-12-08T01:00:00Z,29.4412,-92.0613,10.0,3.489,148.0,,'11111222,11111222,99999999' 
WAVCIS,ioos:station:WAVCIS:CSI03:3,2012-12-08T02:00:00Z,29.4412,-92.0613,10.0,3.588,179.0,,'11111222,11111222,99999999' 
WAVCIS,ioos:station:WAVCIS:CSI03:3,2012-12-08T03:00:00Z,29.4412,-92.0613,10.0,3.994,169.0,,'11111222,11111222,99999999' 
WAVCIS,ioos:station:WAVCIS:CSI03:3,2012-12-08T04:00:00Z,29.4412,-92.0613,10.0,4.93,177.0,,'11111222,11111222,99999999' 
WAVCIS,ioos:station:WAVCIS:CSI03:3,2012-12-08T05:00:00Z,29.4412,-92.0613,10.0,5.092,183.0,,'11111222,11111222,99999999' 
WAVCIS,ioos:station:WAVCIS:CSI03:3,2012-12-08T06:00:00Z,29.4412,-92.0613,10.0,5.236,179.0,,'11111222,11111222,99999999' 
WAVCIS,ioos:station:WAVCIS:CSI03:3,2012-12-08T07:00:00Z,29.4412,-92.0613,10.0,3.815,184.0,,'11111222,11111222,99999999' 
WAVCIS,ioos:station:WAVCIS:CSI03:3,2012-12-08T08:00:00Z,29.4412,-92.0613,10.0,3.757,186.0,,'11111222,11111222,99999999' 
WAVCIS,ioos:station:WAVCIS:CSI03:3,2012-12-08T09:00:00Z,29.4412,-92.0613,10.0,3.616,200.0,,'11111222,11111222,99999999' 
WAVCIS,ioos:station:WAVCIS:CSI03:3,2012-12-08T10:00:00Z,29.4412,-92.0613,10.0,3.188,195.0,,'11111222,11111222,99999999' 
WAVCIS,ioos:station:WAVCIS:CSI03:3,2012-12-08T11:00:00Z,29.4412,-92.0613,10.0,1.148,191.0,,'11111222,11111222,99999999' 
WAVCIS,ioos:station:WAVCIS:CSI03:3,2012-12-08T12:00:00Z,29.4412,-92.0613,10.0,2.667,154.0,,'11111222,11111222,99999999' 
WAVCIS,ioos:station:WAVCIS:CSI03:3,2012-12-08T13:00:00Z,29.4412,-92.0613,10.0,4.829,143.0,,'11111222,11111222,99999999' 
WAVCIS,ioos:station:WAVCIS:CSI03:3,2012-12-08T14:00:00Z,29.4412,-92.0613,10.0,4.998,154.0,,'11111222,11111222,99999999' 
WAVCIS,ioos:station:WAVCIS:CSI03:3,2012-12-08T15:00:00Z,29.4412,-92.0613,10.0,4.772,159.0,,'11111222,11111222,99999999' 
WAVCIS,ioos:station:WAVCIS:CSI03:3,2012-12-08T16:00:00Z,29.4412,-92.0613,10.0,4.569,168.0,,'11111222,11111222,99999999' 
WAVCIS,ioos:station:WAVCIS:CSI03:3,2012-12-08T17:00:00Z,29.4412,-92.0613,10.0,2.727,177.0,,'11111222,11111222,99999999' 
WAVCIS,ioos:station:WAVCIS:CSI03:3,2012-12-08T18:00:00Z,29.4412,-92.0613,10.0,3.079,151.0,,'11111222,11111222,99999999' 
WAVCIS,ioos:station:WAVCIS:CSI03:3,2012-12-08T19:00:00Z,29.4412,-92.0613,10.0,3.58,165.0,,'11111222,11111222,99999999' 
WAVCIS,ioos:station:WAVCIS:CSI03:3,2012-12-08T20:00:00Z,29.4412,-92.0613,10.0,4.006,151.0,,'11111222,11111222,99999999' 
WAVCIS,ioos:station:WAVCIS:CSI03:3,2012-12-08T21:00:00Z,29.4412,-92.0613,10.0,4.731,147.0,,'11111222,11111222,99999999' 
WAVCIS,ioos:station:WAVCIS:CSI03:3,2012-12-08T22:00:00Z,29.4412,-92.0613,10.0,5.002,144.0,,'11111222,11111222,99999999' 
WAVCIS,ioos:station:WAVCIS:CSI03:3,2012-12-08T23:00:00Z,29.4412,-92.0613,10.0,5.832,143.0,,'11111222,11111222,99999999' 
WAVCIS,ioos:station:WAVCIS:CSI03:3,2012-12-09T00:00:00Z,29.4412,-92.0613,10.0,7.39,156.0,,'11111222,11111222,99999999' 
WAVCIS,ioos:station:WAVCIS:CSI03:3,2012-12-09T01:00:00Z,29.4412,-92.0613,10.0,6.181,158.0,,'11111222,11111222,99999999' 
WAVCIS,ioos:station:WAVCIS:CSI03:3,2012-12-09T02:00:00Z,29.4412,-92.0613,10.0,6.137,164.0,,'11111222,11111222,99999999' 
WAVCIS,ioos:station:WAVCIS:CSI03:3,2012-12-09T03:00:00Z,29.4412,-92.0613,10.0,6.497,163.0,,'11111222,11111222,99999999' 
WAVCIS,ioos:station:WAVCIS:CSI03:3,2012-12-09T04:00:00Z,29.4412,-92.0613,10.0,5.831,158.0,,'11111222,11111222,99999999' 
WAVCIS,ioos:station:WAVCIS:CSI03:3,2012-12-09T05:00:00Z,29.4412,-92.0613,10.0,5.857,153.0,,'11111222,11111222,99999999' 